DW8300 Weather Reports


time (UTC)temp
C
wind
direction
speed
KPH
gust
KPH
rain 1hr
cm
rain 24hr
cm
rain mn
cm
humidity
%
barometer
mb
20260509185555 19 124 0.0 6.4 0.00 0.00 0.00 57 1009.4
20260509184427 18 136 0.0 1.6 0.00 0.00 0.00 56 1009.6
20260509183915 18 103 0.0 3.2 0.00 0.00 0.00 57 1009.6
20260509183423 18 115 0.0 0.0 0.00 0.00 0.00 59 1009.8
20260509182917 18 90 0.0 0.0 0.00 0.00 0.00 59 1009.9
20260509182403 18 82 0.0 4.8 0.00 0.00 0.00 61 1009.8
20260509181844 17 151 0.0 0.0 0.00 0.00 0.00 64 1009.7
20260509181341 17 151 0.0 0.0 0.00 0.00 0.00 60 1009.8
20260509180825 17 67 0.0 3.2 0.00 0.00 0.00 62 1009.9
20260509175646 17 131 0.0 0.0 0.00 0.00 0.00 62 1010.2
20260509174524 17 117 0.0 0.0 0.00 0.00 0.00 65 1010.7
20260509174007 17 117 0.0 1.6 0.00 0.00 0.00 62 1010.9
20260509173448 17 120 0.0 0.0 0.00 0.00 0.00 60 1011.1
20260509172948 17 119 0.0 1.6 0.00 0.00 0.00 62 1011.0
20260509172456 17 82 0.0 1.6 0.00 0.00 0.00 63 1011.0
20260509171954 16 116 0.0 0.0 0.00 0.00 0.00 65 1011.1
20260509171453 16 169 0.0 0.0 0.00 0.00 0.00 65 1011.3
20260509170947 16 169 0.0 0.0 0.00 0.00 0.00 66 1011.3
20260509170436 16 169 0.0 1.6 0.00 0.00 0.00 65 1011.3
20260509165921 16 123 0.0 0.0 0.00 0.00 0.00 64 1011.3
20260509165415 16 107 0.0 0.0 0.00 0.00 0.00 63 1011.3
20260509164858 16 101 0.0 0.0 0.00 0.00 0.00 63 1011.1
20260509164404 16 101 0.0 1.6 0.00 0.00 0.00 64 1011.0
20260509163219 16 73 0.0 0.0 0.00 0.00 0.00 61 1010.8
20260509162728 16 72 0.0 0.0 0.00 0.00 0.00 61 1010.9
20260509162228 16 73 0.0 0.0 0.00 0.00 0.00 61 1010.9
20260509161728 16 42 0.0 4.8 0.00 0.00 0.00 60 1011.0
20260509161219 16 34 0.0 1.6 0.00 0.00 0.00 63 1011.1
20260509160704 16 20 0.0 0.0 0.00 0.00 0.00 63 1011.2
20260509160208 16 17 0.0 0.0 0.00 0.00 0.00 60 1011.1
20260509155702 16 273 0.0 0.0 0.00 0.00 0.00 61 1011.1
20260509155207 16 274 0.0 3.2 0.00 0.00 0.00 61 1011.2
20260509154702 16 26 0.0 0.0 0.00 0.00 0.00 61 1011.3
20260509154203 16 29 0.0 1.6 0.00 0.00 0.00 63 1011.4
20260509153041 16 98 0.0 0.0 0.00 0.00 0.00 62 1011.3
20260509152530 16 97 0.0 0.0 0.00 0.00 0.00 66 1011.3
20260509152031 16 98 0.0 0.0 0.00 0.00 0.00 65 1011.4
20260509151533 16 98 0.0 0.0 0.00 0.00 0.00 63 1011.4
20260509145757 15 137 0.0 1.6 0.00 0.00 0.00 67 1011.6
20260509145241 15 136 0.0 0.0 0.00 0.00 0.00 66 1011.6
20260509144747 15 138 0.0 0.0 0.00 0.00 0.00 66 1011.7
20260509144229 15 130 0.0 0.0 0.00 0.00 0.00 66 1011.6
20260509143738 15 86 0.0 0.0 0.00 0.00 0.00 67 1011.6
20260509143247 15 83 0.0 0.0 0.00 0.00 0.00 66 1011.7
20260509142751 14 84 0.0 1.6 0.00 0.00 0.00 68 1011.8
20260509141614 14 73 0.0 0.0 0.00 0.00 0.00 67 1011.5
20260509141119 14 72 0.0 0.0 0.00 0.00 0.00 68 1011.3
20260509140614 14 69 0.0 0.0 0.00 0.00 0.00 68 1011.1
20260509135605 14 13 0.0 1.6 0.00 0.00 0.00 66 1011.0
20260509134427 14 281 0.0 0.0 0.00 0.00 0.00 68 1011.3
20260509133257 14 280 0.0 0.0 0.00 0.00 0.00 64 1011.4
20260509132130 14 280 0.0 3.2 0.00 0.00 0.00 65 1011.5
20260509131611 14 324 0.0 0.0 0.00 0.00 0.00 67 1011.4
20260509131053 13 326 0.0 0.0 0.00 0.00 0.00 66 1011.3
20260509130537 13 329 0.0 0.0 0.00 0.00 0.00 68 1011.2
20260509130020 13 329 0.0 0.0 0.00 0.00 0.00 68 1011.4
20260509125519 13 329 0.0 0.0 0.00 0.00 0.00 68 1011.3
20260509125018 13 329 0.0 0.0 0.00 0.00 0.00 69 1011.3
20260509123845 13 329 0.0 0.0 0.00 0.00 0.00 69 1011.3
20260509123347 13 329 0.0 0.0 0.00 0.00 0.00 70 1011.4
20260509122239 13 329 0.0 0.0 0.00 0.00 0.00 68 1011.4
20260509121747 13 329 0.0 0.0 0.00 0.00 0.00 67 1011.5
20260509121246 13 329 0.0 0.0 0.00 0.00 0.00 67 1011.5
20260509120736 13 329 0.0 0.0 0.00 0.00 0.00 67 1011.5
20260509120223 13 328 0.0 0.0 0.00 0.00 0.00 63 1011.5
20260509115733 12 329 0.0 0.0 0.00 0.00 0.00 62 1011.3
20260509115216 12 328 0.0 0.0 0.00 0.00 0.00 66 1011.2
20260509114719 12 18 0.0 0.0 0.00 0.00 0.00 68 1011.0
20260509113555 12 18 0.0 0.0 0.00 0.00 0.00 71 1011.1
20260509113052 12 9 0.0 3.2 0.00 0.00 0.00 70 1011.1
20260509112533 11 346 0.0 0.0 0.00 0.00 0.00 72 1011.1
20260509112042 11 343 0.0 0.0 0.00 0.00 0.00 72 1011.2
20260509111543 11 343 0.0 0.0 0.00 0.00 0.00 73 1011.3
20260509110403 12 344 0.0 0.0 0.00 0.00 0.00 70 1011.2
20260509105847 11 351 0.0 0.0 0.00 0.00 0.00 69 1011.1
20260509104108 11 351 0.0 0.0 0.00 0.00 0.00 68 1010.9
20260509103557 11 351 0.0 0.0 0.00 0.00 0.00 69 1010.8
20260509103045 11 351 0.0 0.0 0.00 0.00 0.00 69 1010.9
20260509102539 11 351 0.0 0.0 0.00 0.00 0.00 68 1010.9
20260509102037 11 351 0.0 0.0 0.00 0.00 0.00 68 1011.0
20260509101525 11 351 0.0 0.0 0.00 0.00 0.00 68 1010.9
20260509100343 11 351 0.0 0.0 0.00 0.00 0.00 68 1010.8
20260509095852 11 351 0.0 0.0 0.00 0.00 0.00 68 1010.9
20260509095357 11 351 0.0 0.0 0.00 0.00 0.00 67 1010.9
20260509094905 11 351 0.0 0.0 0.00 0.00 0.00 67 1010.8
20260509094403 11 351 0.0 0.0 0.00 0.00 0.00 67 1010.8
20260509093853 11 351 0.0 0.0 0.00 0.00 0.00 68 1010.9
20260509091453 11 351 0.0 0.0 0.00 0.00 0.00 66 1010.9
20260509091001 11 351 0.0 0.0 0.00 0.00 0.00 66 1011.0
20260509090452 11 351 0.0 0.0 0.00 0.00 0.00 65 1010.9
20260509084715 12 351 0.0 0.0 0.00 0.00 0.00 64 1011.1
20260509084221 12 351 0.0 0.0 0.00 0.00 0.00 65 1011.0
20260509083702 12 351 0.0 0.0 0.00 0.00 0.00 64 1011.0
20260509083205 12 351 0.0 0.0 0.00 0.00 0.00 65 1011.1
20260509082648 12 351 0.0 0.0 0.00 0.00 0.00 65 1011.0
20260509082150 12 351 0.0 0.0 0.00 0.00 0.00 63 1011.1
20260509081635 12 351 0.0 0.0 0.00 0.00 0.00 63 1011.2
20260509081118 12 351 0.0 0.0 0.00 0.00 0.00 64 1011.1
20260509075953 12 351 0.0 0.0 0.00 0.00 0.00 65 1011.0
20260509074848 12 351 0.0 0.0 0.00 0.00 0.00 63 1011.0
20260509074342 12 351 0.0 0.0 0.00 0.00 0.00 64 1011.0
20260509072601 12 351 0.0 0.0 0.00 0.00 0.00 65 1011.1
20260509071414 12 331 0.0 0.0 0.00 0.00 0.00 65 1011.2
20260509070907 12 318 0.0 0.0 0.00 0.00 0.00 65 1011.1
20260509070413 12 318 0.0 0.0 0.00 0.00 0.00 64 1011.2
20260509065859 12 317 0.0 0.0 0.00 0.00 0.00 64 1011.2
20260509065342 12 317 0.0 0.0 0.00 0.00 0.00 65 1011.2
20260509064846 12 317 0.0 0.0 0.00 0.00 0.00 63 1011.2
20260509064339 12 317 0.0 0.0 0.00 0.00 0.00 62 1011.3
20260509063825 12 317 0.0 0.0 0.00 0.00 0.00 62 1011.3
20260509063329 12 317 0.0 0.0 0.00 0.00 0.00 63 1011.4
20260509062825 12 315 0.0 0.0 0.00 0.00 0.00 62 1011.4
20260509062320 12 315 0.0 0.0 0.00 0.00 0.00 62 1011.5
20260509061819 12 315 0.0 0.0 0.00 0.00 0.00 62 1011.6
20260509061306 12 314 0.0 0.0 0.00 0.00 0.00 62 1011.7
20260509060756 12 315 0.0 0.0 0.00 0.00 0.00 62 1011.6
20260509060252 12 315 0.0 0.0 0.00 0.00 0.00 61 1011.6
20260509055107 12 315 0.0 0.0 0.00 0.00 0.00 61 1011.6
20260509054558 12 315 0.0 0.0 0.00 0.00 0.00 61 1011.7
20260509054039 12 314 0.0 0.0 0.00 0.00 0.00 62 1011.7
20260509053534 12 315 0.0 0.0 0.00 0.00 0.00 62 1011.7
20260509053031 12 315 0.0 0.0 0.00 0.00 0.00 62 1011.7
20260509051248 12 311 0.0 0.0 0.00 0.00 0.00 61 1011.5
20260509050734 12 311 0.0 0.0 0.00 0.00 0.00 60 1011.6
20260509050236 12 311 0.0 0.0 0.00 0.00 0.00 60 1011.8
20260509045732 12 311 0.0 0.0 0.00 0.00 0.00 60 1011.8
20260509045242 12 310 0.0 0.0 0.00 0.00 0.00 62 1011.9
20260509044743 12 310 0.0 0.0 0.00 0.00 0.00 60 1011.9
20260509044238 12 310 0.0 0.0 0.00 0.00 0.00 60 1012.0
20260509043739 12 310 0.0 0.0 0.00 0.00 0.00 60 1011.9
20260509043237 12 310 0.0 0.0 0.00 0.00 0.00 60 1011.9
20260509042732 12 310 0.0 0.0 0.00 0.00 0.00 59 1012.0
20260509042218 12 309 0.0 0.0 0.00 0.00 0.00 59 1012.0
20260509041725 12 310 0.0 0.0 0.00 0.00 0.00 59 1011.9
20260509041220 12 310 0.0 0.0 0.00 0.00 0.00 58 1011.9
20260509040728 12 310 0.0 0.0 0.00 0.00 0.00 57 1011.9
20260509040238 12 310 0.0 0.0 0.00 0.00 0.00 57 1012.0
20260509035738 12 310 0.0 0.0 0.00 0.00 0.00 56 1012.0
20260509035227 12 310 0.0 0.0 0.00 0.00 0.00 57 1012.0
20260509034106 13 310 0.0 0.0 0.00 0.00 0.00 56 1012.0
20260509033557 13 309 0.0 0.0 0.00 0.00 0.00 56 1012.0
20260509033048 13 310 0.0 0.0 0.00 0.00 0.00 54 1012.0
20260509031317 13 306 0.0 0.0 0.00 0.00 0.00 56 1011.9
20260509030823 12 306 0.0 0.0 0.00 0.00 0.00 57 1011.9
20260509025705 12 302 0.0 0.0 0.00 0.00 0.00 60 1012.2
20260509025211 13 303 0.0 0.0 0.00 0.00 0.00 60 1012.2
20260509024713 13 302 0.0 0.0 0.00 0.00 0.00 60 1012.2
20260509024157 13 302 0.0 0.0 0.00 0.00 0.00 59 1012.3
20260509023704 13 302 0.0 0.0 0.00 0.00 0.00 60 1012.4
20260509023151 13 303 0.0 0.0 0.00 0.00 0.00 58 1012.3
20260509022652 13 302 0.0 1.6 0.00 0.00 0.00 57 1012.4
20260509022159 14 303 0.0 0.0 0.00 0.00 0.00 53 1012.4
20260509021702 14 310 0.0 0.0 0.00 0.00 0.00 52 1012.3
20260509021212 14 310 0.0 0.0 0.00 0.00 0.00 52 1012.3
20260509020654 14 305 0.0 0.0 0.00 0.00 0.00 53 1012.3
20260509020138 14 310 0.0 0.0 0.00 0.00 0.00 52 1012.2
20260509015013 14 309 0.0 0.0 0.00 0.00 0.00 53 1012.2
20260509013847 15 309 0.0 0.0 0.00 0.00 0.00 52 1012.2
20260509013346 15 309 0.0 0.0 0.00 0.00 0.00 52 1012.2
20260509012845 15 309 0.0 0.0 0.00 0.00 0.00 51 1012.2
20260509012349 15 309 0.0 0.0 0.00 0.00 0.00 54 1012.3
20260509011837 15 309 0.0 0.0 0.00 0.00 0.00 53 1012.2
20260509011346 15 309 0.0 0.0 0.00 0.00 0.00 53 1012.2
20260509010854 15 309 0.0 0.0 0.00 0.00 0.00 52 1012.1
20260509010357 15 309 0.0 0.0 0.00 0.00 0.00 51 1012.0
20260509005222 15 309 0.0 0.0 0.00 0.00 0.00 51 1012.0
20260509004703 15 309 0.0 0.0 0.00 0.00 0.00 50 1012.1
20260509004146 16 309 0.0 0.0 0.00 0.00 0.00 51 1012.1
20260509003631 16 309 0.0 1.6 0.00 0.00 0.00 52 1012.0
20260509003125 16 274 0.0 0.0 0.00 0.00 0.00 52 1012.0
20260509002607 16 274 0.0 0.0 0.00 0.00 0.00 51 1012.0
20260509001447 16 274 0.0 0.0 0.00 0.00 0.00 51 1012.0
20260509000307 16 274 0.0 0.0 0.00 0.00 0.00 46 1011.8
20260508235136 17 274 0.0 0.0 0.00 0.00 0.00 46 1011.7
20260508234631 17 274 0.0 0.0 0.00 0.00 0.00 45 1011.7
20260508234116 17 274 0.0 0.0 0.00 0.00 0.00 44 1011.6
20260508233616 17 274 0.0 0.0 0.00 0.00 0.00 45 1011.7
20260508233113 17 274 0.0 0.0 0.00 0.00 0.00 45 1011.6
20260508232553 18 274 0.0 0.0 0.00 0.00 0.00 45 1011.5
20260508230747 18 276 0.0 0.0 0.00 0.00 0.00 41 1011.3
20260508225640 18 272 0.0 0.0 0.00 0.00 0.00 40 1011.3
20260508225137 18 271 0.0 8.0 0.00 0.00 0.00 41 1011.4
20260508224631 18 271 0.0 8.0 0.00 0.00 0.00 40 1011.4
20260508224115 18 270 0.0 1.6 0.00 0.00 0.00 40 1011.4
20260508223611 18 254 0.0 1.6 0.00 0.00 0.00 40 1011.4
20260508223104 18 252 0.0 8.0 0.00 0.00 0.00 39 1011.4
20260508222548 18 277 0.0 1.6 0.00 0.00 0.00 40 1011.4
20260508222048 18 278 1.6 11.3 0.00 0.00 0.00 41 1011.3
20260508221543 18 259 0.0 12.9 0.00 0.00 0.00 39 1011.3
20260508221024 18 269 0.0 12.9 0.00 0.00 0.00 39 1011.3
20260508220519 18 271 0.0 12.9 0.00 0.00 0.00 40 1011.3
20260508220006 18 267 0.0 12.9 0.00 0.00 0.00 38 1011.4
20260508215508 18 266 0.0 8.0 0.00 0.00 0.00 37 1011.4
20260508215004 18 267 1.6 12.9 0.00 0.00 0.00 37 1011.4
20260508213853 18 261 1.6 14.5 0.00 0.00 0.00 37 1011.4
20260508212724 18 273 3.2 16.1 0.00 0.00 0.00 36 1011.6
20260508212209 18 249 3.2 17.7 0.00 0.00 0.00 36 1011.5
20260508211715 18 289 1.6 17.7 0.00 0.00 0.00 35 1011.6
20260508211208 19 255 3.2 17.7 0.00 0.00 0.00 35 1011.5
20260508210650 19 265 4.8 17.7 0.00 0.00 0.00 36 1011.4
20260508210153 19 234 3.2 16.1 0.00 0.00 0.00 35 1011.3
20260508205645 19 254 3.2 16.1 0.00 0.00 0.00 35 1011.4
20260508204532 19 296 3.2 19.3 0.00 0.00 0.00 35 1011.5
20260508204034 19 257 3.2 19.3 0.00 0.00 0.00 36 1011.4
20260508203518 20 254 4.8 19.3 0.00 0.00 0.00 33 1011.5
20260508201806 21 241 4.8 16.1 0.00 0.00 0.00 31 1011.6
20260508201250 21 234 4.8 16.1 0.00 0.00 0.00 32 1011.6
20260508200747 20 220 4.8 16.1 0.00 0.00 0.00 34 1011.7
20260508200257 20 202 6.4 22.5 0.00 0.00 0.00 31 1011.6
20260508195119 20 230 6.4 22.5 0.00 0.00 0.00 36 1011.7
20260508194600 20 230 4.8 17.7 0.00 0.00 0.00 34 1011.8
20260508194050 19 246 4.8 14.5 0.00 0.00 0.00 34 1011.7
20260508193557 20 207 3.2 16.1 0.00 0.00 0.00 34 1011.8
20260508193057 20 216 1.6 16.1 0.00 0.00 0.00 36 1011.9
20260508191936 19 249 4.8 19.3 0.00 0.00 0.00 35 1012.1
20260508191425 19 225 3.2 19.3 0.00 0.00 0.00 33 1012.3
20260508190920 19 229 4.8 17.7 0.00 0.00 0.00 34 1012.3
20260508190412 19 248 6.4 17.7 0.00 0.00 0.00 33 1012.4